Time,TemperatureF,DewpointF,PressureIn,WindDirection,WindDirectionDegrees,WindSpeedMPH,WindSpeedGustMPH,Humidity,HourlyPrecipIn,Conditions,Clouds,dailyrainin,SoftwareType,DateUTC
2013-07-24 00:13:00,64.5,62.0,29.97,NE,56,0.0,0.0,90,0.00,,,0.00,weatherlink.com 1.10,2013-07-24 05:13:00,
2013-07-24 00:28:00,64.2,62.0,29.98,NE,56,0.0,0.0,91,0.00,,,0.00,weatherlink.com 1.10,2013-07-24 05:28:00,
2013-07-24 00:43:00,63.8,61.0,29.98,NE,56,0.0,0.0,91,0.00,,,0.00,weatherlink.com 1.10,2013-07-24 05:43:00,
2013-07-24 00:58:00,63.5,61.0,30.00,NE,56,0.0,0.0,91,0.00,,,0.00,weatherlink.com 1.10,2013-07-24 05:58:00,
2013-07-24 01:13:00,63.6,61.0,30.00,NE,56,0.0,0.0,92,0.00,,,0.00,weatherlink.com 1.10,2013-07-24 06:13:00,
2013-07-24 01:28:00,63.3,61.0,30.01,NE,56,0.0,0.0,92,0.00,,,0.00,weatherlink.com 1.10,2013-07-24 06:28:00,
2013-07-24 01:43:00,63.2,61.0,30.00,NE,56,0.0,0.0,92,0.00,,,0.00,weatherlink.com 1.10,2013-07-24 06:43:00,
2013-07-24 01:58:00,63.0,61.0,30.01,NE,56,0.0,0.0,92,0.00,,,0.00,weatherlink.com 1.10,2013-07-24 06:58:00,
2013-07-24 02:13:00,62.6,60.0,30.01,NE,56,0.0,0.0,92,0.00,,,0.00,weatherlink.com 1.10,2013-07-24 07:13:00,
2013-07-24 02:28:00,62.3,60.0,30.00,NE,56,0.0,0.0,93,0.00,,,0.00,weatherlink.com 1.10,2013-07-24 07:28:00,
2013-07-24 02:43:00,62.0,60.0,30.00,NE,56,0.0,0.0,93,0.00,,,0.00,weatherlink.com 1.10,2013-07-24 07:43:00,
2013-07-24 02:58:00,61.8,60.0,30.00,NE,56,0.0,0.0,93,0.00,,,0.00,weatherlink.com 1.10,2013-07-24 07:58:00,
2013-07-24 03:13:00,61.8,60.0,30.00,NE,56,0.0,0.0,93,0.00,,,0.00,weatherlink.com 1.10,2013-07-24 08:13:00,
2013-07-24 03:28:00,61.5,60.0,30.01,NE,56,0.0,0.0,93,0.00,,,0.00,weatherlink.com 1.10,2013-07-24 08:28:00,
2013-07-24 03:43:00,61.3,59.0,30.01,NE,56,0.0,0.0,93,0.00,,,0.00,weatherlink.com 1.10,2013-07-24 08:43:00,
2013-07-24 03:58:00,61.1,59.0,30.00,NE,56,0.0,0.0,93,0.00,,,0.00,weatherlink.com 1.10,2013-07-24 08:58:00,
2013-07-24 04:13:00,60.9,59.0,30.00,NE,56,0.0,0.0,93,0.00,,,0.00,weatherlink.com 1.10,2013-07-24 09:13:00,
2013-07-24 04:28:00,60.5,59.0,30.01,NE,56,0.0,0.0,93,0.00,,,0.00,weatherlink.com 1.10,2013-07-24 09:28:00,
2013-07-24 04:43:00,60.2,58.0,30.02,NE,56,0.0,0.0,93,0.00,,,0.00,weatherlink.com 1.10,2013-07-24 09:43:00,
2013-07-24 04:58:00,60.0,58.0,30.02,NE,56,0.0,0.0,93,0.00,,,0.00,weatherlink.com 1.10,2013-07-24 09:58:00,
2013-07-24 05:13:00,59.7,58.0,30.02,NE,56,0.0,0.0,93,0.00,,,0.00,weatherlink.com 1.10,2013-07-24 10:13:00,
2013-07-24 05:28:00,59.4,57.0,30.02,NE,56,0.0,0.0,93,0.00,,,0.00,weatherlink.com 1.10,2013-07-24 10:28:00,
2013-07-24 05:43:00,59.2,57.0,30.02,NE,56,0.0,0.0,93,0.00,,,0.00,weatherlink.com 1.10,2013-07-24 10:43:00,
2013-07-24 05:58:00,58.8,57.0,30.02,NE,56,0.0,0.0,93,0.00,,,0.00,weatherlink.com 1.10,2013-07-24 10:58:00,
2013-07-24 06:13:00,58.6,57.0,30.04,NE,56,0.0,0.0,93,0.00,,,0.00,weatherlink.com 1.10,2013-07-24 11:13:00,
2013-07-24 06:28:00,58.5,57.0,30.04,NE,56,0.0,0.0,94,0.00,,,0.00,weatherlink.com 1.10,2013-07-24 11:28:00,
2013-07-24 06:43:00,58.6,57.0,30.05,NE,56,0.0,0.0,94,0.00,,,0.00,weatherlink.com 1.10,2013-07-24 11:43:00,
2013-07-24 06:58:00,58.9,57.0,30.05,NE,56,0.0,0.0,94,0.00,,,0.00,weatherlink.com 1.10,2013-07-24 11:58:00,
2013-07-24 07:13:00,60.3,59.0,30.06,NE,56,0.0,0.0,95,0.00,,,0.00,weatherlink.com 1.10,2013-07-24 12:13:00,
2013-07-24 07:28:00,62.3,61.0,30.06,NE,56,0.0,0.0,95,0.00,,,0.00,weatherlink.com 1.10,2013-07-24 12:28:00,
2013-07-24 07:43:00,64.5,63.0,30.06,NE,56,0.0,0.0,95,0.00,,,0.00,weatherlink.com 1.10,2013-07-24 12:43:00,
2013-07-24 07:58:00,66.1,63.0,30.06,NE,56,0.0,0.0,89,0.00,,,0.00,weatherlink.com 1.10,2013-07-24 12:58:00,
2013-07-24 08:13:00,67.8,62.0,30.06,NE,56,0.0,0.0,81,0.00,,,0.00,weatherlink.com 1.10,2013-07-24 13:13:00,
2013-07-24 08:28:00,69.7,63.0,30.06,NE,56,0.0,0.0,79,0.00,,,0.00,weatherlink.com 1.10,2013-07-24 13:28:00,
2013-07-24 08:44:00,70.9,63.0,30.05,NE,56,0.0,0.0,76,0.00,,,0.00,weatherlink.com 1.10,2013-07-24 13:44:00,
2013-07-24 08:59:00,70.2,62.0,30.07,South,183,0.0,0.0,75,0.00,,,0.00,weatherlink.com 1.10,2013-07-24 13:59:00,
2013-07-24 09:14:00,70.5,62.0,30.07,SSW,197,0.0,0.0,75,0.00,,,0.00,weatherlink.com 1.10,2013-07-24 14:14:00,
2013-07-24 09:29:00,72.1,63.0,30.06,SSW,197,0.0,0.0,73,0.00,,,0.00,weatherlink.com 1.10,2013-07-24 14:29:00,
2013-07-24 09:44:00,72.7,64.0,30.06,NNE,25,0.0,0.0,75,0.00,,,0.00,weatherlink.com 1.10,2013-07-24 14:44:00,
2013-07-24 09:59:00,73.1,64.0,30.06,NNE,18,0.0,0.0,72,0.00,,,0.00,weatherlink.com 1.10,2013-07-24 14:59:00,
2013-07-24 10:14:00,74.1,64.0,30.06,West,274,0.0,0.0,71,0.00,,,0.00,weatherlink.com 1.10,2013-07-24 15:14:00,
2013-07-24 10:29:00,74.4,62.0,30.06,WNW,293,0.0,1.0,65,0.00,,,0.00,weatherlink.com 1.10,2013-07-24 15:29:00,
2013-07-24 10:44:00,74.3,63.0,30.05,North,3,0.0,5.0,67,0.00,,,0.00,weatherlink.com 1.10,2013-07-24 15:44:00,
2013-07-24 10:59:00,75.3,63.0,30.05,NNW,343,0.0,4.0,65,0.00,,,0.00,weatherlink.com 1.10,2013-07-24 15:59:00,
2013-07-24 11:14:00,75.7,63.0,30.06,NNW,341,0.0,6.0,64,0.00,,,0.00,weatherlink.com 1.10,2013-07-24 16:14:00,
2013-07-24 11:29:00,76.4,62.0,30.06,NNE,26,0.0,7.0,62,0.00,,,0.00,weatherlink.com 1.10,2013-07-24 16:29:00,
2013-07-24 11:44:00,76.6,63.0,30.05,North,6,0.0,9.0,62,0.00,,,0.00,weatherlink.com 1.10,2013-07-24 16:44:00,
2013-07-24 11:59:00,77.4,64.0,30.05,North,4,0.0,7.0,64,0.00,,,0.00,weatherlink.com 1.10,2013-07-24 16:59:00,
2013-07-24 12:14:00,77.5,63.0,30.06,NNW,342,0.0,9.0,61,0.00,,,0.00,weatherlink.com 1.10,2013-07-24 17:14:00,
2013-07-24 12:29:00,77.8,63.0,30.06,NNE,29,3.0,7.0,61,0.00,,,0.00,weatherlink.com 1.10,2013-07-24 17:29:00,
2013-07-24 12:44:00,78.4,63.0,30.05,North,360,0.0,9.0,60,0.00,,,0.00,weatherlink.com 1.10,2013-07-24 17:44:00,
2013-07-24 12:59:00,79.0,62.0,30.05,NW,304,0.0,9.0,57,0.00,,,0.00,weatherlink.com 1.10,2013-07-24 17:59:00,
2013-07-24 13:14:00,79.0,63.0,30.05,NNW,328,0.0,5.0,59,0.00,,,0.00,weatherlink.com 1.10,2013-07-24 18:14:00,
2013-07-24 13:29:00,79.3,64.0,30.05,NE,45,3.0,8.0,60,0.00,,,0.00,weatherlink.com 1.10,2013-07-24 18:29:00,
2013-07-24 13:44:00,79.8,65.0,30.04,West,277,0.0,7.0,60,0.00,,,0.00,weatherlink.com 1.10,2013-07-24 18:44:00,
2013-07-24 13:59:00,80.2,64.0,30.04,North,360,0.0,7.0,58,0.00,,,0.00,weatherlink.com 1.10,2013-07-24 18:59:00,
2013-07-24 14:14:00,80.4,62.0,30.04,North,360,0.0,10.0,54,0.00,,,0.00,weatherlink.com 1.10,2013-07-24 19:14:00,
2013-07-24 14:29:00,80.6,63.0,30.03,NNE,30,1.0,8.0,55,0.00,,,0.00,weatherlink.com 1.10,2013-07-24 19:29:00,
2013-07-24 14:44:00,81.3,62.0,30.03,NNE,12,1.0,7.0,52,0.00,,,0.00,weatherlink.com 1.10,2013-07-24 19:44:00,
2013-07-24 14:59:00,81.5,63.0,30.03,North,360,0.0,2.0,54,0.00,,,0.00,weatherlink.com 1.10,2013-07-24 19:59:00,
2013-07-24 15:14:00,81.6,62.0,30.03,North,350,3.0,7.0,52,0.00,,,0.00,weatherlink.com 1.10,2013-07-24 20:14:00,
2013-07-24 15:29:00,82.1,63.0,30.02,ENE,75,1.0,7.0,52,0.00,,,0.00,weatherlink.com 1.10,2013-07-24 20:29:00,
2013-07-24 15:44:00,82.3,63.0,30.02,North,358,0.0,2.0,53,0.00,,,0.00,weatherlink.com 1.10,2013-07-24 20:44:00,
2013-07-24 15:59:00,82.5,62.0,30.01,NNW,342,0.0,7.0,50,0.00,,,0.00,weatherlink.com 1.10,2013-07-24 20:59:00,
2013-07-24 16:14:00,83.2,64.0,30.01,NE,35,1.0,5.0,52,0.00,,,0.00,weatherlink.com 1.10,2013-07-24 21:14:00,
2013-07-24 16:29:00,82.6,60.0,30.00,NE,47,0.0,5.0,47,0.00,,,0.00,weatherlink.com 1.10,2013-07-24 21:29:00,
2013-07-24 16:44:00,83.0,62.0,30.00,NNE,12,1.0,7.0,50,0.00,,,0.00,weatherlink.com 1.10,2013-07-24 21:44:00,
2013-07-24 16:59:00,83.3,62.0,30.00,NE,45,0.0,0.0,49,0.00,,,0.00,weatherlink.com 1.10,2013-07-24 21:59:00,
2013-07-24 17:14:00,83.5,64.0,30.00,NE,40,0.0,0.0,52,0.00,,,0.00,weatherlink.com 1.10,2013-07-24 22:14:00,
2013-07-24 17:29:00,82.4,61.0,30.00,ENE,73,0.0,1.0,49,0.00,,,0.00,weatherlink.com 1.10,2013-07-24 22:29:00,
2013-07-24 17:44:00,81.8,61.0,29.99,East,81,0.0,0.0,50,0.00,,,0.00,weatherlink.com 1.10,2013-07-24 22:44:00,
2013-07-24 17:59:00,81.5,64.0,30.00,ESE,121,0.0,2.0,56,0.00,,,0.00,weatherlink.com 1.10,2013-07-24 22:59:00,
2013-07-24 18:14:00,81.4,62.0,30.00,ESE,120,0.0,0.0,52,0.00,,,0.00,weatherlink.com 1.10,2013-07-24 23:14:00,
2013-07-24 18:44:00,79.9,66.0,29.99,ESE,104,0.0,0.0,63,0.00,,,0.00,weatherlink.com 1.10,2013-07-24 23:44:00,
2013-07-24 19:00:00,79.0,66.0,30.00,ESE,110,0.0,0.0,64,0.00,,,0.00,weatherlink.com 1.10,2013-07-25 00:00:00,
2013-07-24 19:14:00,78.5,65.0,30.00,ESE,110,0.0,0.0,64,0.00,,,0.00,weatherlink.com 1.10,2013-07-25 00:14:00,
2013-07-24 19:30:00,77.7,65.0,30.00,ESE,105,0.0,0.0,66,0.00,,,0.00,weatherlink.com 1.10,2013-07-25 00:30:00,
2013-07-24 19:45:00,77.1,66.0,30.00,East,90,2.0,4.0,68,0.00,,,0.00,weatherlink.com 1.10,2013-07-25 00:45:00,
2013-07-24 20:00:00,76.4,66.0,30.00,East,95,3.0,5.0,70,0.00,,,0.00,weatherlink.com 1.10,2013-07-25 01:00:00,
2013-07-24 20:15:00,75.6,65.0,30.00,ESE,111,0.0,5.0,69,0.00,,,0.00,weatherlink.com 1.10,2013-07-25 01:15:00,
2013-07-24 20:30:00,75.0,64.0,30.00,East,89,2.0,6.0,69,0.00,,,0.00,weatherlink.com 1.10,2013-07-25 01:30:00,
2013-07-24 20:45:00,74.4,64.0,29.99,ESE,110,1.0,4.0,70,0.00,,,0.00,weatherlink.com 1.10,2013-07-25 01:45:00,
2013-07-24 21:00:00,73.7,64.0,29.98,ESE,111,0.0,6.0,71,0.00,,,0.00,weatherlink.com 1.10,2013-07-25 02:00:00,
2013-07-24 21:15:00,73.2,64.0,29.98,ESE,108,0.0,5.0,72,0.00,,,0.00,weatherlink.com 1.10,2013-07-25 02:15:00,
2013-07-24 21:30:00,72.8,64.0,29.99,ESE,122,0.0,6.0,73,0.00,,,0.00,weatherlink.com 1.10,2013-07-25 02:30:00,
2013-07-24 21:45:00,72.4,64.0,29.99,SE,124,0.0,2.0,74,0.00,,,0.00,weatherlink.com 1.10,2013-07-25 02:45:00,
2013-07-24 22:00:00,71.7,63.0,30.00,SE,124,0.0,0.0,75,0.00,,,0.00,weatherlink.com 1.10,2013-07-25 03:00:00,
2013-07-24 22:30:00,70.6,63.0,30.02,SE,124,0.0,0.0,77,0.00,,,0.00,weatherlink.com 1.10,2013-07-25 03:30:00,
2013-07-24 22:45:00,70.1,63.0,30.02,SE,124,0.0,0.0,78,0.00,,,0.00,weatherlink.com 1.10,2013-07-25 03:45:00,
2013-07-24 23:15:00,69.2,63.0,30.03,SE,124,0.0,0.0,81,0.00,,,0.00,weatherlink.com 1.10,2013-07-25 04:15:00,
2013-07-24 23:30:00,68.9,63.0,30.02,SE,124,0.0,0.0,82,0.00,,,0.00,weatherlink.com 1.10,2013-07-25 04:30:00,
2013-07-24 23:45:00,68.7,63.0,30.02,SE,124,0.0,0.0,83,0.00,,,0.00,weatherlink.com 1.10,2013-07-25 04:45:00,